Time,TemperatureF,DewpointF,PressureIn,WindDirection,WindDirectionDegrees,WindSpeedMPH,WindSpeedGustMPH,Humidity,HourlyPrecipIn,Conditions,Clouds,dailyrainin,SoftwareType,DateUTC
2013-01-18 00:02:00,34.2,17.0,32.40,NE,36,4.0,13.0,50,0.00,,,0.00,weatherlink.com 1.10,2013-01-18 07:02:00,
2013-01-18 00:17:00,-999.0,-99.9,32.36,North,-999,-999.0,-999.0,-999,0.00,,,0.00,weatherlink.com 1.10,2013-01-18 07:17:00,
2013-01-18 00:32:00,35.7,17.0,32.36,ENE,69,7.0,13.0,47,0.00,,,0.00,weatherlink.com 1.10,2013-01-18 07:32:00,
2013-01-18 00:47:00,35.6,17.0,32.38,East,85,10.0,13.0,47,0.00,,,0.00,weatherlink.com 1.10,2013-01-18 07:47:00,
2013-01-18 01:02:00,35.5,17.0,32.37,East,84,11.0,14.0,47,0.00,,,0.00,weatherlink.com 1.10,2013-01-18 08:02:00,
2013-01-18 01:17:00,34.4,17.0,32.36,ENE,78,9.0,15.0,49,0.00,,,0.00,weatherlink.com 1.10,2013-01-18 08:17:00,
2013-01-18 01:33:00,31.2,14.0,32.37,ENE,73,8.0,20.0,50,0.00,,,0.00,weatherlink.com 1.10,2013-01-18 08:33:00,
2013-01-18 01:48:00,34.5,17.0,32.35,ENE,61,10.0,18.0,49,0.00,,,0.00,weatherlink.com 1.10,2013-01-18 08:48:00,
2013-01-18 02:03:00,35.3,17.0,32.37,ESE,111,12.0,19.0,47,0.00,,,0.00,weatherlink.com 1.10,2013-01-18 09:03:00,
2013-01-18 02:18:00,33.8,17.0,32.37,East,101,14.0,18.0,51,0.00,,,0.00,weatherlink.com 1.10,2013-01-18 09:18:00,
2013-01-18 02:33:00,33.5,17.0,32.37,East,87,10.0,17.0,52,0.00,,,0.00,weatherlink.com 1.10,2013-01-18 09:33:00,
2013-01-18 02:48:00,33.3,17.0,32.37,East,84,11.0,16.0,52,0.00,,,0.00,weatherlink.com 1.10,2013-01-18 09:48:00,
2013-01-18 03:03:00,32.8,17.0,32.36,ESE,117,11.0,15.0,53,0.00,,,0.00,weatherlink.com 1.10,2013-01-18 10:03:00,
2013-01-18 03:18:00,33.5,17.0,32.34,East,99,10.0,12.0,51,0.00,,,0.00,weatherlink.com 1.10,2013-01-18 10:18:00,
2013-01-18 03:33:00,33.8,17.0,32.35,East,88,11.0,13.0,51,0.00,,,0.00,weatherlink.com 1.10,2013-01-18 10:33:00,
2013-01-18 03:48:00,34.0,17.0,32.34,ESE,111,10.0,16.0,50,0.00,,,0.00,weatherlink.com 1.10,2013-01-18 10:48:00,
2013-01-18 04:03:00,34.5,17.0,32.34,East,87,5.0,14.0,49,0.00,,,0.00,weatherlink.com 1.10,2013-01-18 11:03:00,
2013-01-18 04:18:00,34.2,17.0,32.34,ESE,108,9.0,11.0,49,0.00,,,0.00,weatherlink.com 1.10,2013-01-18 11:18:00,
2013-01-18 04:33:00,34.1,16.0,32.34,ESE,118,9.0,10.0,48,0.00,,,0.00,weatherlink.com 1.10,2013-01-18 11:33:00,
2013-01-18 04:48:00,34.3,16.0,32.33,ESE,113,9.0,15.0,48,0.00,,,0.00,weatherlink.com 1.10,2013-01-18 11:48:00,
2013-01-18 05:03:00,34.2,16.0,32.32,East,79,7.0,10.0,48,0.00,,,0.00,weatherlink.com 1.10,2013-01-18 12:03:00,
2013-01-18 05:18:00,34.4,16.0,32.32,East,94,5.0,10.0,47,0.00,,,0.00,weatherlink.com 1.10,2013-01-18 12:18:00,
2013-01-18 05:33:00,33.9,16.0,32.31,East,94,6.0,11.0,48,0.00,,,0.00,weatherlink.com 1.10,2013-01-18 12:33:00,
2013-01-18 05:48:00,33.0,16.0,32.30,ENE,71,7.0,8.0,49,0.00,,,0.00,weatherlink.com 1.10,2013-01-18 12:48:00,
2013-01-18 06:03:00,33.7,16.0,32.30,East,93,7.0,11.0,48,0.00,,,0.00,weatherlink.com 1.10,2013-01-18 13:03:00,
2013-01-18 06:18:00,33.4,15.0,32.29,East,94,7.0,10.0,48,0.00,,,0.00,weatherlink.com 1.10,2013-01-18 13:18:00,
2013-01-18 06:33:00,33.3,15.0,32.28,East,90,3.0,13.0,48,0.00,,,0.00,weatherlink.com 1.10,2013-01-18 13:33:00,
2013-01-18 06:48:00,32.0,16.0,32.26,ESE,107,5.0,13.0,51,0.00,,,0.00,weatherlink.com 1.10,2013-01-18 13:48:00,
2013-01-18 07:03:00,30.3,16.0,32.27,NW,320,3.0,15.0,55,0.00,,,0.00,weatherlink.com 1.10,2013-01-18 14:03:00,
2013-01-18 07:18:00,30.5,16.0,32.27,ENE,69,8.0,17.0,55,0.00,,,0.00,weatherlink.com 1.10,2013-01-18 14:18:00,
2013-01-18 07:33:00,32.8,16.0,32.27,East,98,9.0,14.0,50,0.00,,,0.00,weatherlink.com 1.10,2013-01-18 14:33:00,
2013-01-18 07:48:00,32.9,15.0,32.27,ENE,62,7.0,13.0,49,0.00,,,0.00,weatherlink.com 1.10,2013-01-18 14:48:00,
2013-01-18 08:03:00,32.9,16.0,32.27,East,83,8.0,14.0,50,0.00,,,0.00,weatherlink.com 1.10,2013-01-18 15:03:00,
2013-01-18 08:18:00,32.9,15.0,32.28,East,79,10.0,16.0,49,0.00,,,0.00,weatherlink.com 1.10,2013-01-18 15:18:00,
2013-01-18 08:33:00,34.2,15.0,32.27,East,97,8.0,12.0,46,0.00,,,0.00,weatherlink.com 1.10,2013-01-18 15:33:00,
2013-01-18 08:48:00,35.1,15.0,32.26,ESE,106,4.0,10.0,44,0.00,,,0.00,weatherlink.com 1.10,2013-01-18 15:48:00,
2013-01-18 09:03:00,35.6,14.0,32.28,East,96,6.0,9.0,42,0.00,,,0.00,weatherlink.com 1.10,2013-01-18 16:03:00,
2013-01-18 09:18:00,36.1,15.0,32.28,East,94,3.0,8.0,42,0.00,,,0.00,weatherlink.com 1.10,2013-01-18 16:18:00,
2013-01-18 09:33:00,36.8,14.0,32.28,East,94,2.0,7.0,39,0.00,,,0.00,weatherlink.com 1.10,2013-01-18 16:33:00,
2013-01-18 09:48:00,38.7,14.0,32.27,NNE,17,2.0,5.0,36,0.00,,,0.00,weatherlink.com 1.10,2013-01-18 16:48:00,
2013-01-18 10:10:00,40.0,14.0,32.28,SW,232,2.0,3.0,34,0.00,,,0.00,weatherlink.com 1.10,2013-01-18 17:10:00,
2013-01-18 10:19:00,41.1,13.0,32.26,SW,223,1.0,5.0,32,0.00,,,0.00,weatherlink.com 1.10,2013-01-18 17:19:00,
2013-01-18 10:34:00,41.6,12.0,32.26,WSW,245,4.0,6.0,30,0.00,,,0.00,weatherlink.com 1.10,2013-01-18 17:34:00,
2013-01-18 10:49:00,42.3,12.0,32.26,SSW,207,4.0,5.0,29,0.00,,,0.00,weatherlink.com 1.10,2013-01-18 17:49:00,
2013-01-18 11:04:00,41.4,13.0,32.26,SW,225,3.0,6.0,31,0.00,,,0.00,weatherlink.com 1.10,2013-01-18 18:04:00,
2013-01-18 11:19:00,41.4,15.0,32.25,SE,132,0.0,6.0,35,0.00,,,0.00,weatherlink.com 1.10,2013-01-18 18:19:00,
2013-01-18 11:34:00,41.7,13.0,32.23,East,96,2.0,7.0,31,0.00,,,0.00,weatherlink.com 1.10,2013-01-18 18:34:00,
2013-01-18 11:49:00,41.8,12.0,32.22,WSW,244,3.0,7.0,30,0.00,,,0.00,weatherlink.com 1.10,2013-01-18 18:49:00,
2013-01-18 12:04:00,42.8,12.0,32.21,NW,313,3.0,6.0,28,0.00,,,0.00,weatherlink.com 1.10,2013-01-18 19:04:00,
2013-01-18 12:19:00,43.0,12.0,32.21,West,279,4.0,10.0,28,0.00,,,0.00,weatherlink.com 1.10,2013-01-18 19:19:00,
2013-01-18 12:34:00,44.3,11.0,32.18,WNW,295,1.0,9.0,26,0.00,,,0.00,weatherlink.com 1.10,2013-01-18 19:34:00,
2013-01-18 12:49:00,44.0,12.0,32.17,WSW,250,0.0,7.0,27,0.00,,,0.00,weatherlink.com 1.10,2013-01-18 19:49:00,
2013-01-18 13:04:00,45.7,16.0,32.17,WNW,300,2.0,3.0,30,0.00,,,0.00,weatherlink.com 1.10,2013-01-18 20:04:00,
2013-01-18 13:19:00,44.7,12.0,32.19,WSW,255,10.0,10.0,26,0.00,,,0.00,weatherlink.com 1.10,2013-01-18 20:19:00,
2013-01-18 13:34:00,43.8,11.0,32.17,West,261,2.0,17.0,26,0.00,,,0.00,weatherlink.com 1.10,2013-01-18 20:34:00,
2013-01-18 13:49:00,44.0,11.0,32.16,NW,319,24.0,25.0,26,0.00,,,0.00,weatherlink.com 1.10,2013-01-18 20:49:00,
2013-01-18 14:04:00,44.3,10.0,32.15,WNW,292,8.0,18.0,25,0.00,,,0.00,weatherlink.com 1.10,2013-01-18 21:04:00,
2013-01-18 14:19:00,43.6,12.0,32.16,NNW,341,11.0,18.0,28,0.00,,,0.00,weatherlink.com 1.10,2013-01-18 21:19:00,
2013-01-18 14:34:00,44.0,12.0,32.16,NW,315,13.0,19.0,27,0.00,,,0.00,weatherlink.com 1.10,2013-01-18 21:34:00,
2013-01-18 14:49:00,44.9,12.0,32.13,NW,313,13.0,23.0,26,0.00,,,0.00,weatherlink.com 1.10,2013-01-18 21:49:00,
2013-01-18 15:04:00,44.8,11.0,32.15,NW,316,32.0,37.0,25,0.00,,,0.00,weatherlink.com 1.10,2013-01-18 22:04:00,
2013-01-18 15:19:00,44.2,11.0,32.14,WNW,300,13.0,26.0,26,0.00,,,0.00,weatherlink.com 1.10,2013-01-18 22:19:00,
2013-01-18 15:34:00,44.3,12.0,32.13,WNW,293,13.0,23.0,27,0.00,,,0.00,weatherlink.com 1.10,2013-01-18 22:34:00,
2013-01-18 15:49:00,44.3,11.0,32.13,WNW,284,11.0,23.0,26,0.00,,,0.00,weatherlink.com 1.10,2013-01-18 22:49:00,
2013-01-18 16:04:00,44.1,11.0,32.13,WNW,294,17.0,26.0,26,0.00,,,0.00,weatherlink.com 1.10,2013-01-18 23:04:00,
2013-01-18 16:19:00,43.8,13.0,32.13,West,277,6.0,24.0,29,0.00,,,0.00,weatherlink.com 1.10,2013-01-18 23:19:00,
2013-01-18 16:34:00,44.1,10.0,32.13,NW,323,14.0,25.0,25,0.00,,,0.00,weatherlink.com 1.10,2013-01-18 23:34:00,
2013-01-18 16:49:00,43.6,11.0,32.13,WNW,297,12.0,20.0,26,0.00,,,0.00,weatherlink.com 1.10,2013-01-18 23:49:00,
2013-01-18 17:04:00,43.6,11.0,32.13,WNW,294,9.0,28.0,27,0.00,,,0.00,weatherlink.com 1.10,2013-01-19 00:04:00,
2013-01-18 17:19:00,43.4,10.0,32.12,WNW,290,10.0,20.0,25,0.00,,,0.00,weatherlink.com 1.10,2013-01-19 00:19:00,
2013-01-18 17:34:00,43.1,12.0,32.15,NW,321,19.0,27.0,28,0.00,,,0.00,weatherlink.com 1.10,2013-01-19 00:34:00,
2013-01-18 17:49:00,41.7,13.0,32.16,NW,319,18.0,37.0,31,0.00,,,0.00,weatherlink.com 1.10,2013-01-19 00:49:00,
2013-01-18 18:04:00,40.4,14.0,32.16,NW,322,24.0,32.0,34,0.00,,,0.00,weatherlink.com 1.10,2013-01-19 01:04:00,
2013-01-18 18:19:00,40.2,14.0,32.17,West,281,21.0,32.0,34,0.00,,,0.00,weatherlink.com 1.10,2013-01-19 01:19:00,
2013-01-18 18:34:00,40.0,13.0,32.17,NW,307,27.0,30.0,33,0.00,,,0.00,weatherlink.com 1.10,2013-01-19 01:34:00,
2013-01-18 18:49:00,40.1,12.0,32.17,NW,308,27.0,33.0,31,0.00,,,0.00,weatherlink.com 1.10,2013-01-19 01:49:00,
2013-01-18 19:04:00,40.8,11.0,32.17,NW,313,22.0,35.0,30,0.00,,,0.00,weatherlink.com 1.10,2013-01-19 02:04:00,
2013-01-18 19:19:00,40.1,12.0,32.17,WNW,302,12.0,31.0,31,0.00,,,0.00,weatherlink.com 1.10,2013-01-19 02:19:00,
2013-01-18 19:34:00,39.7,12.0,32.18,NW,311,20.0,27.0,32,0.00,,,0.00,weatherlink.com 1.10,2013-01-19 02:34:00,
2013-01-18 19:49:00,40.1,10.0,32.19,West,276,16.0,27.0,29,0.00,,,0.00,weatherlink.com 1.10,2013-01-19 02:49:00,
2013-01-18 20:04:00,40.4,10.0,32.20,WNW,298,25.0,32.0,28,0.00,,,0.00,weatherlink.com 1.10,2013-01-19 03:04:00,
2013-01-18 20:19:00,40.5,10.0,32.19,NW,313,21.0,31.0,28,0.00,,,0.00,weatherlink.com 1.10,2013-01-19 03:19:00,
2013-01-18 20:34:00,40.2,10.0,32.19,NW,313,26.0,32.0,29,0.00,,,0.00,weatherlink.com 1.10,2013-01-19 03:34:00,
2013-01-18 20:49:00,40.9,9.0,32.19,NW,319,25.0,33.0,27,0.00,,,0.00,weatherlink.com 1.10,2013-01-19 03:49:00,
2013-01-18 21:04:00,40.4,10.0,32.20,West,267,18.0,32.0,28,0.00,,,0.00,weatherlink.com 1.10,2013-01-19 04:04:00,
2013-01-18 21:19:00,40.9,9.0,32.21,West,279,20.0,34.0,27,0.00,,,0.00,weatherlink.com 1.10,2013-01-19 04:19:00,
2013-01-18 21:34:00,40.0,9.0,32.21,NNW,329,6.0,26.0,28,0.00,,,0.00,weatherlink.com 1.10,2013-01-19 04:34:00,
2013-01-18 21:49:00,39.6,10.0,32.22,NW,313,17.0,24.0,29,0.00,,,0.00,weatherlink.com 1.10,2013-01-19 04:49:00,
2013-01-18 22:04:00,39.7,9.0,32.22,WNW,301,18.0,24.0,28,0.00,,,0.00,weatherlink.com 1.10,2013-01-19 05:04:00,
2013-01-18 22:19:00,40.3,9.0,32.23,WNW,299,21.0,25.0,27,0.00,,,0.00,weatherlink.com 1.10,2013-01-19 05:19:00,
2013-01-18 22:34:00,39.9,9.0,32.23,West,272,15.0,22.0,28,0.00,,,0.00,weatherlink.com 1.10,2013-01-19 05:34:00,
2013-01-18 22:49:00,40.0,8.0,32.23,WNW,293,18.0,25.0,27,0.00,,,0.00,weatherlink.com 1.10,2013-01-19 05:49:00,
2013-01-18 23:04:00,39.6,10.0,32.24,WNW,302,15.0,21.0,29,0.00,,,0.00,weatherlink.com 1.10,2013-01-19 06:04:00,
2013-01-18 23:20:00,39.7,9.0,32.24,NW,315,15.0,21.0,28,0.00,,,0.00,weatherlink.com 1.10,2013-01-19 06:20:00,
2013-01-18 23:35:00,-999.0,-99.9,32.24,North,-999,-999.0,-999.0,-999,0.00,,,0.00,weatherlink.com 1.10,2013-01-19 06:35:00,
2013-01-18 23:50:00,-999.0,-99.9,32.23,North,-999,-999.0,-999.0,-999,0.00,,,0.00,weatherlink.com 1.10,2013-01-19 06:50:00,